This is the latest recevied weather packets stored in our database for station/object KF0EZB. If no packets are shown the sender has not sent any weather packets the latest 10 day(s).
| Time | Temp. | Humidity | Pressure | Rain* | Wind** | Luminosity | Snow |
|---|---|---|---|---|---|---|---|
| 1777253190 | 14.44° C | 96% | 1001.9 hPa | 0 mm | - | 0 W/m² | - |
| 1777252887 | 14.44° C | 96% | 1002.1 hPa | 0 mm | - | 0 W/m² | - |
| 1777252584 | 14.44° C | 95% | 1001.9 hPa | 0 mm | - | 0 W/m² | - |
| 1777252281 | 15° C | 95% | 1002 hPa | 0 mm | - | 0 W/m² | - |
| 1777251979 | 15° C | 94% | 1003.7 hPa | 0 mm | - | 0 W/m² | - |
| 1777251676 | 15° C | 94% | 1003.8 hPa | 0 mm | - | 0 W/m² | - |
| 1777251373 | 15° C | 94% | 1003.5 hPa | 0 mm | - | 0 W/m² | - |
| 1777251068 | 15° C | 94% | 1003.4 hPa | 0 mm | - | 0 W/m² | - |
| 1777250765 | 15° C | 94% | 1002.6 hPa | 0 mm | - | 1 W/m² | - |
| 1777250462 | 15° C | 93% | 1002.3 hPa | 0 mm | - | 5 W/m² | - |
| 1777250156 | 15° C | 93% | 1002.2 hPa | 0 mm | - | 10 W/m² | - |
| 1777249853 | 15° C | 93% | 1001.9 hPa | 0 mm | - | 14 W/m² | - |
| 1777249549 | 15° C | 92% | 1001.9 hPa | 0 mm | - | 11 W/m² | - |
| 1777249246 | 15° C | 92% | 1001.8 hPa | 0 mm | - | 15 W/m² | - |
| 1777248944 | 15° C | 91% | 1002.1 hPa | 0 mm | - | 17 W/m² | - |
| 1777248640 | 15° C | 91% | 1002.4 hPa | 0 mm | - | 26 W/m² | - |
| 1777248336 | 15° C | 91% | 1002 hPa | 0 mm | - | 38 W/m² | - |
| 1777248032 | 15° C | 91% | 1002.3 hPa | 0 mm | - | 52 W/m² | - |
| 1777247726 | 15° C | 91% | 1002.7 hPa | 0 mm | - | 60 W/m² | - |
| 1777247423 | 15° C | 90% | 1002.4 hPa | 0 mm | - | 64 W/m² | - |
| 1777247121 | 15° C | 90% | 1002.8 hPa | 0 mm | - | 54 W/m² | - |
| 1777246818 | 15° C | 90% | 1002.7 hPa | 0 mm | - | 58 W/m² | - |
| 1777246513 | 15° C | 89% | 1003 hPa | 0 mm | - | 57 W/m² | - |
| 1777246211 | 15° C | 89% | 1003.1 hPa | 0 mm | - | 60 W/m² | - |
| 1777245909 | 15° C | 89% | 1003 hPa | 0 mm | - | 93 W/m² | - |
* Rain latest hour (hover to see other rain measurements)
** Current wind speed in m/s (hover to see current wind gust speed)